Weather in Lesosibirsk

Russia / Krasnoyarsk Krai     58°13′18″N   92°30′13″E
temp.,
°C
wind,
m/s
gust,
m/s
humid.,
%
clouds,
%
prec.,
mm/h
press.,
hPa
HPBL,
m
13 august, sat
sat1301:00+9se018246 0.0 101110
04:00+9ese11787 0.0 101110
07:00+11e126750 0.0 101084
10:00+18ese34455 0.0 1009690
13:00+22se23393 0.0 10081717
16:00+23se22370 0.0 10062059
19:00+20sse11605 0.0 100511
22:00+14e22760 0.0 100522
14 august, sun
sun1401:00+11ese2879100 0.0 1004159
04:00+11ese2579100 0.0 1003108
07:00+12sse2677100 0.1 1002190
10:00+13se269893 1.2 1002211
13:00+16s369495 2.1 1001660
16:00+16sw3991100 4.7 999425
19:00+14sw41195100 8.1 999600
22:00+12ssw412989 2.3 999478
15 august, mon
mon1501:00+12sw4119874 2.6 999545
04:00+12wsw41097100 1.7 998746
07:00+11wsw499686 1.9 1000693
10:00+13w487877 0.3 10001137
13:00+14w4661100 0.4 10011542
16:00+13sw4886100 0.8 1002844
19:00+11wnw2689100 1.8 1003346
22:00+9wsw3991100 0.1 1004524
16 august, tue
tue1601:00+8wsw3792100 0.3 1004516
04:00+7wsw3796100 0.4 1003450
07:00+6wsw2697100 0.6 1004406
10:00+7wsw2698100 0.4 1004408
13:00+8wsw2595100 0.5 1005627
16:00+9wsw2595100 0.1 1005572
19:00+8sw3697100 0.1 1006476
22:00+8sw3999100 0.4 1006469
17 august, wed
wed1701:00+10wsw41099100 0.6 1006569
04:00+9wsw4999100 0.1 1007497
07:00+8wsw3798100 0.1 1007455
10:00+8wsw3697100 0.1 1008467
13:00+8wsw2698100 0.6 1009460
16:00+8w2698100 0.9 1009390
19:00+8wsw1297100 0.9 101087
22:00+7ssw1196100 0.0 101010